Park Rapids, MN

9:45 AM CDT on March 26, 2017 (GMT -0500)
Park Rapids Municipal

Weather History for KPKD - October, 2012

Change the Weather History Date:

Monday, October 15, 2012

  Actual Average Record
Temperature  
Mean Temperature 40 °F -  
Max Temperature 57 °F 53 °F 78 °F (1963)
Min Temperature 24 °F 32 °F 16 °F (1992)
Degree Days  
Heating Degree Days 24    
Moisture  
Dew Point 30 °F    
Average Humidity 80    
Maximum Humidity 100    
Minimum Humidity 47    
Precipitation  
Precipitation 0.00 in - - ()
Sea Level Pressure  
Sea Level Pressure 29.87 in    
Wind  
Wind Speed 4 mph (SSW)    
Max Wind Speed 15 mph    
Max Gust Speed -    
Visibility 5 miles    
Events Fog    
Averages and records for this station are not official NWS values.
T = Trace of Precipitation, MM = Missing Value Source: NWS Daily Summary

Daily Weather History Graph

Daily Weather History Graph

Search for Another Location

Airport or City:

Trip Planner

Search our weather history database for the weather conditions in past years. The results will help you decide how hot, cold, wet, or windy it might be!

Date:

Astronomy

Oct. 15, 2012 Rise Set
Actual Time 7:38 AM CDT 6:32 PM CDT
Civil Twilight 7:08 AM CDT 7:02 PM CDT
Nautical Twilight 6:33 AM CDT 7:37 PM CDT
Astronomical Twilight 5:57 AM CDT 8:13 PM CDT
Moon 7:54 AM CDT (10/15) 6:26 PM CDT (10/15)
Length of Visible Light 11h 54m
Length of Day
10h 53m
New Moon, 0% of the Moon is Illuminated
Oct 15
New Moon
Oct 21
First Quarter
Oct 29
Full
Nov 6
Last Quarter
Nov 13
New

Hourly Weather History & Observations

Time (CDT) Temp. Windchill Dew Point Humidity Pressure Visibility Wind Dir Wind Speed Gust Speed Precip Events Conditions
12:53 AM 32.0 °F 28.7 °F 30.0 °F 92% 29.94 in 10.0 mi West 3.5 mph - N/A   Clear
1:53 AM 30.9 °F 27.5 °F 28.9 °F 92% 29.94 in 5.0 mi WNW 3.5 mph - N/A   Clear
2:53 AM 30.9 °F - 28.9 °F 92% 29.94 in 5.0 mi Calm Calm - N/A   Clear
3:06 AM 28.4 °F - 26.6 °F 93% 29.90 in 0.8 mi Calm Calm - N/A   Clear
3:17 AM 26.6 °F 22.6 °F 26.6 °F 100% 29.90 in 0.2 mi WSW 3.5 mph - N/A Fog Light Freezing Fog
3:27 AM 26.6 °F 20.0 °F 24.8 °F 93% 29.90 in 0.5 mi West 5.8 mph - N/A Fog Light Freezing Fog
3:37 AM 28.4 °F 22.2 °F 26.6 °F 93% 29.90 in 1.2 mi West 5.8 mph - N/A   Partly Cloudy
3:42 AM 28.4 °F 22.2 °F 26.6 °F 93% 29.90 in 3.0 mi West 5.8 mph - N/A   Partly Cloudy
3:53 AM 30.0 °F - 27.0 °F 88% 29.94 in 7.0 mi Calm Calm - N/A   Clear
4:45 AM 28.4 °F 24.6 °F 26.6 °F 93% 29.90 in 2.5 mi WNW 3.5 mph - N/A   Partly Cloudy
4:47 AM 26.6 °F 22.6 °F 26.6 °F 100% 29.90 in 1.0 mi West 3.5 mph - N/A   Mist
4:53 AM 26.1 °F 21.9 °F 25.0 °F 96% 29.94 in 0.5 mi West 3.5 mph - N/A Fog Light Freezing Fog
5:24 AM 26.6 °F - 24.8 °F 93% 29.90 in 0.2 mi Calm Calm - N/A Fog Light Freezing Fog
5:34 AM 28.4 °F - 26.6 °F 93% 29.89 in 0.8 mi Calm Calm - N/A   Mist
5:37 AM 28.4 °F - 26.6 °F 93% 29.89 in 1.2 mi Calm Calm - N/A   Scattered Clouds
5:49 AM 30.2 °F - 28.4 °F 93% 29.89 in 0.8 mi Calm Calm - N/A   Mist
5:53 AM 28.9 °F - 27.0 °F 92% 29.93 in 0.5 mi Calm Calm - N/A Fog Light Freezing Fog
6:03 AM 30.2 °F - 28.4 °F 93% 29.89 in 2.0 mi Calm Calm - N/A   Clear
6:10 AM 30.2 °F - 28.4 °F 93% 29.89 in 10.0 mi Calm Calm - N/A   Clear
6:38 AM 24.8 °F - 21.2 °F 86% 29.89 in 1.8 mi Calm Calm - N/A   Partly Cloudy
6:40 AM 24.8 °F - 21.2 °F 86% 29.89 in 0.8 mi Calm Calm - N/A   Mist
6:53 AM 28.0 °F - 26.1 °F 92% 29.94 in 1.8 mi Calm Calm - N/A   Mostly Cloudy
7:00 AM 26.6 °F - 26.6 °F 100% 29.89 in 10.0 mi Calm Calm - N/A   Mostly Cloudy
7:05 AM 26.6 °F - 24.8 °F 93% 29.89 in 1.8 mi Calm Calm - N/A   Mostly Cloudy
7:15 AM 26.6 °F - 24.8 °F 93% 29.90 in 0.5 mi Calm Calm - N/A Fog Light Freezing Fog
7:29 AM 26.6 °F - 24.8 °F 93% 29.90 in 1.2 mi Calm Calm - N/A   Scattered Clouds
7:33 AM 28.4 °F - 26.6 °F 93% 29.89 in 3.0 mi Calm Calm - N/A   Partly Cloudy
7:53 AM 27.0 °F - 24.1 °F 89% 29.95 in 9.0 mi Calm Calm - N/A   Clear
8:53 AM 30.0 °F - 28.9 °F 96% 29.96 in 6.0 mi Calm Calm - N/A   Clear
9:53 AM 39.0 °F 35.7 °F 36.0 °F 89% 29.94 in 10.0 mi SE 4.6 mph - N/A   Clear
10:53 AM 46.9 °F - 37.0 °F 68% 29.94 in 10.0 mi South 5.8 mph - N/A   Clear
11:53 AM 50.0 °F - 37.9 °F 63% 29.92 in 10.0 mi SSE 8.1 mph - N/A   Clear
12:53 PM 55.0 °F - 37.9 °F 53% 29.88 in 10.0 mi SSE 9.2 mph - N/A   Clear
1:53 PM 55.9 °F - 37.9 °F 51% 29.85 in 10.0 mi South 8.1 mph - N/A   Overcast
2:53 PM 57.0 °F - 37.9 °F 49% 29.83 in 10.0 mi South 8.1 mph - N/A   Overcast
3:53 PM 55.9 °F - 37.9 °F 51% 29.80 in 10.0 mi SSE 15.0 mph - 0.00 in   Overcast
4:53 PM 55.9 °F - 37.0 °F 49% 29.78 in 10.0 mi SSE 10.4 mph - N/A   Overcast
5:53 PM 55.9 °F - 36.0 °F 47% 29.75 in 10.0 mi SSE 13.8 mph - N/A   Mostly Cloudy
6:53 PM 55.0 °F - 36.0 °F 49% 29.74 in 10.0 mi SSE 13.8 mph - N/A   Overcast
7:53 PM 54.0 °F - 36.0 °F 51% 29.73 in 10.0 mi SSE 13.8 mph - N/A   Partly Cloudy
8:53 PM 54.0 °F - 36.0 °F 51% 29.70 in 10.0 mi SSE 11.5 mph - N/A   Partly Cloudy
9:53 PM 53.1 °F - 36.0 °F 52% 29.69 in 10.0 mi SSE 9.2 mph - N/A   Clear
10:53 PM 53.1 °F - 36.0 °F 52% 29.65 in 10.0 mi SSE 10.4 mph - N/A   Scattered Clouds
11:53 PM 53.1 °F - 36.0 °F 52% 29.62 in 10.0 mi SSE 10.4 mph - N/A   Mostly Cloudy